TimeCST,TemperatureF,Dew PointF,Humidity,Sea Level PressureIn,VisibilityMPH,Wind Direction,Wind SpeedMPH,Gust SpeedMPH,PrecipitationIn,Events,Conditions,WindDirDegrees,DateUTC
12:15 AM,19.4,16.7,89,30.30,7.0,Calm,Calm,-,N/A,,Clear,0,2012-12-30 06:15:00
12:35 AM,19.4,16.5,89,30.29,7.0,SSW,4.6,-,N/A,,Clear,200,2012-12-30 06:35:00
12:55 AM,19.4,16.5,89,30.30,7.0,SSW,3.5,-,N/A,,Clear,200,2012-12-30 06:55:00
1:15 AM,19.8,16.7,88,30.30,7.0,SSW,4.6,-,N/A,,Clear,210,2012-12-30 07:15:00
1:35 AM,20.5,17.2,87,30.32,7.0,SSW,5.8,-,N/A,,Clear,200,2012-12-30 07:35:00
1:55 AM,20.7,17.2,87,30.32,7.0,SSW,4.6,-,N/A,,Clear,200,2012-12-30 07:55:00
2:15 AM,20.7,17.1,86,30.33,7.0,SW,4.6,-,N/A,,Clear,220,2012-12-30 08:15:00
2:35 AM,20.8,16.9,85,30.33,10.0,Calm,Calm,-,N/A,,Clear,0,2012-12-30 08:35:00
2:55 AM,21.2,17.6,86,30.34,7.0,SSW,5.8,-,N/A,,Clear,210,2012-12-30 08:55:00
3:15 AM,22.1,17.6,83,30.36,10.0,SW,6.9,-,N/A,,Clear,220,2012-12-30 09:15:00
3:35 AM,22.1,17.6,83,30.35,10.0,SW,4.6,-,N/A,,Clear,230,2012-12-30 09:35:00
3:55 AM,22.1,17.6,83,30.35,10.0,SW,5.8,-,N/A,,Clear,230,2012-12-30 09:55:00
4:15 AM,22.1,17.4,82,30.34,10.0,WSW,3.5,-,N/A,,Clear,250,2012-12-30 10:15:00
4:35 AM,22.6,17.4,80,30.33,10.0,SW,4.6,-,N/A,,Clear,230,2012-12-30 10:35:00
4:55 AM,22.1,17.2,82,30.33,10.0,SW,5.8,-,N/A,,Clear,230,2012-12-30 10:55:00
5:15 AM,22.8,17.6,80,30.34,10.0,SW,6.9,-,N/A,,Clear,230,2012-12-30 11:15:00
5:35 AM,23.4,18.1,80,30.36,10.0,SW,9.2,-,N/A,,Clear,230,2012-12-30 11:35:00
5:55 AM,23.7,18.3,80,30.36,10.0,SW,8.1,-,N/A,,Clear,230,2012-12-30 11:55:00
6:15 AM,23.4,18.1,80,30.37,10.0,SW,8.1,-,N/A,,Clear,220,2012-12-30 12:15:00
6:35 AM,23.0,17.6,80,30.37,10.0,SW,5.8,-,N/A,,Clear,230,2012-12-30 12:35:00
6:55 AM,23.4,18.3,81,30.37,10.0,SW,5.8,-,N/A,,Clear,220,2012-12-30 12:55:00
7:15 AM,22.1,17.6,83,30.36,10.0,SSW,5.8,-,N/A,,Clear,210,2012-12-30 13:15:00
7:35 AM,21.9,17.4,83,30.36,10.0,SSW,3.5,-,N/A,,Clear,210,2012-12-30 13:35:00
7:55 AM,21.4,17.6,85,30.35,10.0,SSW,3.5,-,N/A,,Clear,210,2012-12-30 13:55:00
8:15 AM,22.8,19.0,85,30.36,7.0,Calm,Calm,-,N/A,,Clear,0,2012-12-30 14:15:00
8:35 AM,25.9,20.3,79,30.36,10.0,SSW,5.8,-,N/A,,Clear,210,2012-12-30 14:35:00
8:55 AM,27.7,21.0,76,30.37,10.0,SSW,6.9,-,N/A,,Clear,210,2012-12-30 14:55:00
9:15 AM,28.4,21.2,74,30.38,10.0,SSW,9.2,-,N/A,,Clear,210,2012-12-30 15:15:00
9:35 AM,29.8,22.1,73,30.38,10.0,SSW,9.2,-,N/A,,Clear,210,2012-12-30 15:35:00
9:55 AM,30.9,22.1,70,30.38,10.0,SSW,10.4,-,N/A,,Clear,210,2012-12-30 15:55:00
10:15 AM,31.8,22.3,68,30.38,10.0,SSW,9.2,-,N/A,,Clear,210,2012-12-30 16:15:00
10:35 AM,32.2,23.2,69,30.38,10.0,SSW,5.8,-,N/A,,Clear,210,2012-12-30 16:35:00
10:55 AM,34.2,24.1,67,30.38,10.0,SSW,6.9,-,N/A,,Clear,210,2012-12-30 16:55:00
11:15 AM,35.8,24.1,62,30.37,10.0,SW,9.2,-,N/A,,Clear,220,2012-12-30 17:15:00
11:35 AM,36.5,23.2,59,30.35,10.0,SSW,6.9,-,N/A,,Clear,200,2012-12-30 17:35:00
11:55 AM,36.9,24.8,62,30.34,10.0,South,5.8,-,N/A,,Clear,170,2012-12-30 17:55:00
12:15 PM,38.1,25.7,61,30.33,10.0,SSW,8.1,-,N/A,,Clear,200,2012-12-30 18:15:00
12:35 PM,38.8,25.9,60,30.32,10.0,SW,6.9,-,N/A,,Clear,220,2012-12-30 18:35:00
12:55 PM,39.4,25.9,58,30.30,10.0,South,6.9,-,N/A,,Clear,190,2012-12-30 18:55:00
1:15 PM,40.6,25.9,56,30.29,10.0,South,9.2,-,N/A,,Clear,190,2012-12-30 19:15:00
1:35 PM,41.2,25.7,54,30.28,10.0,SSW,8.1,-,N/A,,Clear,200,2012-12-30 19:35:00
1:55 PM,41.4,25.9,54,30.27,10.0,South,9.2,-,N/A,,Clear,190,2012-12-30 19:55:00
2:15 PM,42.8,26.1,52,30.27,10.0,South,9.2,-,N/A,,Clear,180,2012-12-30 20:15:00
2:35 PM,42.4,24.3,49,30.26,10.0,South,10.4,-,N/A,,Clear,190,2012-12-30 20:35:00
2:55 PM,42.1,23.2,47,30.26,10.0,SSW,10.4,-,N/A,,Clear,200,2012-12-30 20:55:00
3:15 PM,41.9,20.8,43,30.27,10.0,SSW,10.4,17.3,N/A,,Clear,200,2012-12-30 21:15:00
3:35 PM,41.2,22.8,48,30.27,10.0,South,10.4,-,N/A,,Clear,190,2012-12-30 21:35:00
3:55 PM,40.6,20.5,45,30.26,10.0,South,12.7,-,N/A,,Clear,190,2012-12-30 21:55:00
4:15 PM,39.6,21.7,49,30.26,10.0,South,8.1,-,N/A,,Clear,180,2012-12-30 22:15:00
4:35 PM,39.2,22.5,51,30.26,10.0,SSW,9.2,-,N/A,,Clear,200,2012-12-30 22:35:00
4:55 PM,38.7,22.6,53,30.25,10.0,South,6.9,-,N/A,,Clear,190,2012-12-30 22:55:00
5:15 PM,38.1,23.0,55,30.26,10.0,South,4.6,-,N/A,,Clear,180,2012-12-30 23:15:00
5:35 PM,36.7,24.6,62,30.25,10.0,SSE,5.8,-,N/A,,Clear,160,2012-12-30 23:35:00
5:55 PM,35.8,25.7,67,30.23,10.0,SSE,6.9,-,N/A,,Clear,150,2012-12-30 23:55:00
6:15 PM,35.8,25.3,66,30.23,10.0,SSE,6.9,-,N/A,,Clear,150,2012-12-31 00:15:00
6:35 PM,35.4,25.7,68,30.22,10.0,SSE,8.1,-,N/A,,Clear,150,2012-12-31 00:35:00
6:55 PM,35.6,25.2,66,30.22,10.0,SSE,9.2,-,N/A,,Clear,160,2012-12-31 00:55:00
7:15 PM,35.8,25.0,65,30.21,10.0,South,10.4,-,N/A,,Clear,170,2012-12-31 01:15:00
7:35 PM,35.8,25.7,67,30.21,10.0,South,9.2,-,N/A,,Clear,170,2012-12-31 01:35:00
7:55 PM,36.7,25.0,63,30.20,10.0,South,9.2,-,N/A,,Clear,180,2012-12-31 01:55:00
8:15 PM,37.2,23.9,59,30.20,10.0,South,10.4,-,N/A,,Clear,180,2012-12-31 02:15:00
8:35 PM,37.2,23.7,58,30.19,10.0,South,10.4,-,N/A,,Clear,180,2012-12-31 02:35:00
8:55 PM,37.4,23.7,58,30.18,10.0,South,9.2,-,N/A,,Clear,180,2012-12-31 02:55:00
9:15 PM,36.9,24.3,60,30.18,10.0,South,11.5,16.1,N/A,,Clear,180,2012-12-31 03:15:00
9:35 PM,36.9,24.6,61,30.18,10.0,South,11.5,-,N/A,,Clear,190,2012-12-31 03:35:00
9:55 PM,36.5,24.6,62,30.18,10.0,South,8.1,-,N/A,,Clear,190,2012-12-31 03:55:00
10:15 PM,36.5,24.6,62,30.18,10.0,South,8.1,-,N/A,,Clear,190,2012-12-31 04:15:00
10:35 PM,36.3,25.0,63,30.18,10.0,South,8.1,-,N/A,,Clear,190,2012-12-31 04:35:00
10:55 PM,36.7,25.2,63,30.18,10.0,South,5.8,-,N/A,,Clear,190,2012-12-31 04:55:00
11:15 PM,36.9,24.8,62,30.17,10.0,SSW,9.2,-,N/A,,Clear,200,2012-12-31 05:15:00
11:35 PM,37.2,24.4,60,30.15,10.0,South,9.2,-,N/A,,Clear,190,2012-12-31 05:35:00
11:55 PM,37.0,24.4,60,30.15,10.0,SSW,10.4,-,N/A,,Clear,200,2012-12-31 05:55:00